This is the latest recevied weather packets stored in our database for station/object KI5GCD-13. If no packets are shown the sender has not sent any weather packets the latest 10 day(s).
| Time | Temp. | Humidity | Pressure | Rain* | Wind** | Luminosity | Snow |
|---|---|---|---|---|---|---|---|
| 1777964687 | 15.56° C | 99% | 1003.5 hPa | 33.53 mm | 4.02 m/s, 51° | - | - |
| 1777964387 | 16.11° C | 99% | 1003.1 hPa | 0 mm | 1.34 m/s, 345° | - | - |
| 1777964087 | 16.11° C | 99% | 1001.3 hPa | 2.79 mm | 1.34 m/s, 3° | - | - |
| 1777963787 | 15.56° C | 99% | 1001.3 hPa | 13.72 mm | 0.45 m/s, 103° | - | - |
| 1777963487 | 16.11° C | 99% | 1001.5 hPa | 16.76 mm | 0 m/s | - | - |
| 1777963187 | 16.11° C | 99% | 1002 hPa | 10.16 mm | 0 m/s | - | - |
| 1777962887 | 16.11° C | 99% | 1001.9 hPa | 13.72 mm | 0.89 m/s, 312° | - | - |
| 1777962587 | 16.11° C | 99% | 1001 hPa | 28.7 mm | 0 m/s | - | - |
| 1777962287 | 16.11° C | 99% | 1001.4 hPa | 21.59 mm | 0 m/s | - | - |
| 1777961987 | 16.67° C | 98% | 1002.7 hPa | 0 mm | 0.45 m/s, 249° | - | - |
| 1777961687 | 16.67° C | 97% | 1002.6 hPa | 1.02 mm | 0.45 m/s, 266° | - | - |
| 1777961387 | 16.67° C | 95% | 1002.3 hPa | 2.79 mm | 0 m/s | - | - |
| 1777961087 | 17.22° C | 94% | 1001.1 hPa | 2.79 mm | 0 m/s | - | - |
| 1777960787 | 17.22° C | 92% | 1002.1 hPa | 2.79 mm | 0.45 m/s, 233° | - | - |
| 1777960487 | 17.78° C | 88% | 1002.2 hPa | 1.78 mm | 0.45 m/s, 226° | - | - |
| 1777960187 | 17.22° C | 86% | 1002.1 hPa | 4.06 mm | 1.79 m/s, 243° | - | - |
| 1777959887 | 17.78° C | 90% | 1001.9 hPa | 4.06 mm | 0.89 m/s, 244° | - | - |
| 1777959587 | 17.78° C | 89% | 1002.6 hPa | 1.78 mm | 0.89 m/s, 217° | - | - |
| 1777959287 | 18.89° C | 82% | 1002.7 hPa | 1.78 mm | 0 m/s | - | - |
| 1777958987 | 19.44° C | 78% | 1003 hPa | 0 mm | 0 m/s | - | - |
| 1777958687 | 20° C | 73% | 1002.8 hPa | 0 mm | 0 m/s | - | - |
| 1777958387 | 20° C | 72% | 1002.5 hPa | 0 mm | 0.45 m/s, 245° | - | - |
| 1777958087 | 20° C | 72% | 1002.6 hPa | 0 mm | 0.45 m/s, 241° | - | - |
| 1777957787 | 20° C | 73% | 1002.4 hPa | 0 mm | 0 m/s | - | - |
| 1777957487 | 20° C | 72% | 1002 hPa | 0 mm | 0 m/s | - | - |
* Rain latest hour (hover to see other rain measurements)
** Current wind speed in m/s (hover to see current wind gust speed)